DO9LL-1 Weather Reports


Display with metric or nautical units.
time (UTC)temp
F
wind
direction
speed
MPH
gust
MPH
rain 1hr
in
rain 24hr
in
rain mn
in
humidity
%
barometer
mb
20260506134227 48 317 1.0 2.0 0.05 0.88 0.87 95 1007.6
20260506133222 48 341 1.0 2.0 0.04 0.87 0.86 95 1007.5
20260506132219 48 312 1.0 3.0 0.04 0.86 0.85 94 1007.6
20260506131215 48 353 1.0 2.0 0.03 0.85 0.84 94 1007.6
20260506130232 48 331 1.0 4.0 0.02 0.84 0.83 94 1007.5
20260506125229 47 331 1.0 3.0 0.02 0.84 0.83 94 1007.3
20260506124225 47 321 1.0 2.0 0.01 0.83 0.82 94 1007.3
20260506123222 48 342 1.0 3.0 0.02 0.83 0.82 94 1007.2
20260506122219 48 352 0.0 1.0 0.01 0.82 0.81 95 1007.2
20260506121216 48 357 0.0 2.0 0.02 0.82 0.81 95 1007.1
20260506120233 48 332 0.0 2.0 0.02 0.82 0.81 95 1007.1
20260506115229 48 343 0.0 2.0 0.03 0.82 0.81 95 1007.0
20260506114225 48 347 1.0 2.0 0.03 0.82 0.81 94 1007.0
20260506113216 47 0.0 0.0 0.02 0.81 0.80 95 1007.1
20260506112218 47 327 1.0 3.0 0.03 0.81 0.80 94 1007.0
20260506111235 47 333 1.0 2.0 0.02 0.80 0.79 94 1007.1
20260506110231 47 289 1.0 6.0 0.02 0.80 0.79 94 1006.9
20260506105230 47 326 1.0 2.0 0.01 0.79 0.78 94 1006.9
20260506104225 46 353 1.0 6.0 0.01 0.79 0.78 95 1006.8
20260506103222 46 319 1.0 3.0 0.01 0.79 0.78 95 1006.8
20260506102218 46 329 0.0 2.0 0.00 0.78 0.77 95 1006.8
20260506101237 46 308 1.0 4.0 0.00 0.78 0.77 95 1006.6
20260506100232 46 313 1.0 4.0 0.00 0.78 0.77 95 1006.6
20260506095228 46 343 1.0 2.0 0.00 0.78 0.77 95 1006.6
20260506094226 45 314 1.0 4.0 0.01 0.78 0.77 95 1006.5
20260506093222 45 317 1.0 3.0 0.01 0.78 0.77 96 1006.5
20260506092218 45 330 1.0 3.0 0.01 0.78 0.77 96 1006.4
20260506091235 45 343 1.0 4.0 0.01 0.78 0.77 96 1006.4
20260506090231 45 346 1.0 3.0 0.02 0.78 0.77 96 1006.2
20260506085228 45 349 1.0 4.0 0.02 0.78 0.77 96 1006.3
20260506084225 45 320 1.0 4.0 0.02 0.77 0.76 96 1006.2
20260506083221 45 319 1.0 6.0 0.03 0.77 0.76 96 1006.2
20260506082218 45 317 1.0 4.0 0.04 0.77 0.76 97 1006.1
20260506081235 45 331 1.0 2.0 0.05 0.77 0.76 97 1006.0
20260506080232 45 331 0.0 4.0 0.05 0.76 0.75 97 1006.0
20260506073221 46 323 1.0 4.0 0.05 0.74 0.73 97 1005.9
20260506072218 46 330 0.0 3.0 0.05 0.73 0.72 97 1005.8
20260506071234 46 344 1.0 3.0 0.05 0.72 0.71 97 1005.8
20260506070232 46 310 1.0 2.0 0.05 0.71 0.70 97 1005.8
20260506062218 46 345 1.0 3.0 0.06 0.68 0.67 97 1005.4
20260506061235 47 310 0.0 3.0 0.07 0.67 0.66 97 1005.3
20260506060231 47 357 1.0 2.0 0.08 0.66 0.65 97 1005.3
20260506051233 48 329 1.0 2.0 0.11 0.62 0.59 97 1005.2
20260506050230 48 294 1.0 2.0 0.11 0.60 0.57 97 1005.2
20260506044223 48 353 1.0 2.0 0.10 0.57 0.53 98 1005.2
20260506043220 48 359 1.0 3.0 0.10 0.56 0.52 98 1005.2
20260506042217 48 360 0.0 1.0 0.09 0.54 0.50 97 1005.2
20260506041234 48 342 0.0 2.0 0.09 0.52 0.48 97 1005.3
20260506040230 48 305 0.0 2.0 0.08 0.51 0.46 97 1005.3
20260506035227 48 334 1.0 3.0 0.09 0.50 0.45 97 1005.2
20260506034224 48 329 1.0 3.0 0.08 0.48 0.43 97 1005.3
20260506033220 48 286 0.0 2.0 0.09 0.47 0.42 97 1005.4
20260506032218 48 342 0.0 1.0 0.09 0.46 0.41 97 1005.4
20260506031235 48 360 1.0 3.0 0.08 0.44 0.39 97 1005.4
20260506030231 48 310 1.0 2.0 0.09 0.43 0.38 97 1005.6
20260506025233 48 324 0.0 2.0 0.09 0.41 0.36 97 1005.7
20260506024225 49 309 1.0 3.0 0.09 0.40 0.35 97 1005.7
20260506023223 49 313 1.0 2.0 0.09 0.38 0.33 97 1005.8
20260506022218 49 326 1.0 3.0 0.10 0.37 0.32 98 1006.0
20260506021234 49 313 0.0 3.0 0.11 0.36 0.31 98 1005.9
20260506020231 49 296 0.0 4.0 0.11 0.34 0.29 98 1006.1
20260506015228 49 300 0.0 2.0 0.10 0.32 0.27 98 1006.0
20260506014225 49 296 0.0 2.0 0.11 0.31 0.26 98 1006.1
20260506013221 49 344 0.0 2.0 0.10 0.29 0.24 98 1006.0
20260506012220 49 323 1.0 2.0 0.10 0.27 0.22 98 1006.1
20260506011240 49 351 0.0 2.0 0.10 0.25 0.20 98 1006.1
20260506010231 49 337 0.0 2.0 0.09 0.23 0.18 97 1006.2
20260506005230 49 347 0.0 2.0 0.09 0.22 0.17 97 1006.2
20260506004225 49 308 0.0 1.0 0.08 0.21 0.15 97 1006.4
20260506003222 49 325 1.0 3.0 0.08 0.20 0.14 97 1006.3
20260506002220 49 340 0.0 2.0 0.07 0.18 0.12 97 1006.5
20260506001216 49 293 0.0 2.0 0.06 0.16 0.10 97 1006.5
20260506000233 49 341 0.0 1.0 0.06 0.16 0.09 97 1006.6
20260505235230 49 353 1.0 3.0 0.06 0.15 0.08 97 1006.8
20260505234226 49 349 1.0 3.0 0.07 0.14 0.07 97 1006.8
20260505233224 49 349 0.0 2.0 0.06 0.14 0.06 97 1006.9
20260505232220 49 353 1.0 2.0 0.05 0.13 0.05 97 1006.9
20260505231217 49 348 1.0 2.0 0.04 0.12 0.04 97 1007.0
20260505230234 49 358 1.0 2.0 0.03 0.12 0.03 96 1007.1
20260505225231 49 354 1.0 2.0 0.02 0.11 0.02 96 1007.1
20260505224228 49 346 1.0 3.0 0.01 0.09 0.00 96 1007.1
20260505223224 49 354 1.0 3.0 0.01 0.10 0.00 96 1007.2
20260505222220 49 4 1.0 3.0 0.01 0.10 0.00 95 1007.2
20260505221217 49 352 1.0 3.0 0.01 0.10 0.00 95 1007.2
20260505220234 50 357 1.0 2.0 0.01 0.10 0.10 94 1007.3
20260505215230 50 346 1.0 2.0 0.01 0.10 0.10 94 1007.3
20260505214227 50 352 1.0 3.0 0.00 0.09 0.09 93 1007.5
20260505213224 50 7 0.0 2.0 0.00 0.09 0.09 92 1007.5
20260505212220 51 312 1.0 3.0 0.00 0.09 0.09 91 1007.7
20260505211217 51 323 1.0 3.0 0.00 0.09 0.09 91 1007.7
20260505210234 51 352 1.0 3.0 0.00 0.09 0.09 90 1007.7
20260505205230 51 353 0.0 2.0 0.00 0.09 0.09 90 1007.7
20260505204227 51 332 1.0 3.0 0.00 0.09 0.09 90 1007.7
20260505203224 51 328 1.0 3.0 0.00 0.09 0.09 91 1007.7
20260505202221 51 337 0.0 1.0 0.00 0.09 0.09 91 1007.8
20260505201218 51 359 0.0 1.0 0.00 0.09 0.09 91 1007.7
20260505200235 51 314 0.0 2.0 0.00 0.09 0.09 91 1007.7
20260505195232 51 332 0.0 1.0 0.00 0.09 0.09 91 1007.6
20260505194228 51 306 0.0 2.0 0.00 0.09 0.09 90 1007.7
20260505193225 51 310 0.0 2.0 0.00 0.10 0.09 90 1007.6
20260505192222 51 344 0.0 1.0 0.00 0.10 0.09 90 1007.6
20260505191219 51 323 0.0 2.0 0.00 0.10 0.09 90 1007.6
20260505190215 51 351 0.0 2.0 0.00 0.11 0.09 90 1007.6
20260505185232 51 325 1.0 2.0 0.00 0.11 0.09 90 1007.5
20260505184229 51 308 0.0 1.0 0.00 0.12 0.09 91 1007.6
20260505183230 51 312 0.0 2.0 0.00 0.18 0.09 92 1007.6
20260505182223 51 317 0.0 2.0 0.00 0.35 0.09 92 1007.6
20260505181219 51 342 1.0 4.0 0.00 0.48 0.09 92 1007.7
20260505180216 51 342 1.0 4.0 0.00 0.61 0.09 92 1007.7
20260505175232 51 325 1.0 3.0 0.00 0.61 0.09 92 1007.8
20260505174229 51 343 1.0 3.0 0.00 0.61 0.09 93 1007.6
20260505173226 51 338 0.0 2.0 0.00 0.61 0.09 93 1007.7
20260505172223 51 315 1.0 3.0 0.00 0.61 0.09 93 1007.8
20260505171220 50 297 1.0 3.0 0.00 0.61 0.09 93 1007.7
20260505170216 50 346 1.0 3.0 0.00 0.61 0.09 93 1007.8
20260505165233 50 335 0.0 1.0 0.00 0.61 0.09 93 1007.9
20260505164230 50 1 1.0 2.0 0.00 0.61 0.09 93 1007.9
20260505163226 50 278 1.0 4.0 0.00 0.61 0.09 93 1008.0
20260505162223 50 303 1.0 6.0 0.00 0.61 0.09 93 1008.0
20260505161220 51 314 0.0 2.0 0.00 0.61 0.09 92 1008.1
20260505160217 51 295 0.0 3.0 0.00 0.61 0.09 92 1008.1
20260505153227 50 332 0.0 2.0 0.00 0.61 0.09 92 1008.2
20260505152223 51 344 1.0 6.0 0.00 0.61 0.09 92 1008.3
20260505151220 51 337 1.0 2.0 0.00 0.61 0.09 91 1008.5
20260505150218 51 332 0.0 2.0 0.00 0.61 0.09 91 1008.4
20260505140217 51 328 1.0 2.0 0.00 0.61 0.09 92 1008.7